[[{"header":{"parameterUnit":"m.s-1","parameterCategory":1,"la1":30.2991,"la2":30.254,"lo1":-89.0895,"lo2":-89.0444,"dy":0.0017,"dx":0.0017,"nx":28,"ny":28,"refTime":"2024-06-16T21:00:00:Z","depth":0,"parameterNumber":2,"parameterNumberName":"U-component_of_WINDS"},"data":[0,0,0,0,0,0,0,0,0,0,0,0,0,0,0,0,0,0,0,0,0,0,0,0,0,0,0,0,0,0,0,0,0,0,0,0,0,0,0,0,0,0,0,0,0,0,0,0,0,0,0,0,0,0,0,0,0,0,-5.4193,-5.4194,0,-5.4279,-5.428,-5.4281,-5.4237,-5.4235,-5.4233,-5.4231,-5.4315,-5.4319,-5.4323,0,0,0,0,0,0,0,0,0,0,0,0,0,-5.3989,-5.3993,-5.4193,-5.4194,-5.4195,-5.4279,-5.428,-5.4281,-5.4238,-5.4235,-5.4232,-5.423,-5.4313,-5.4318,-5.4324,0,0,0,0,0,0,0,0,0,0,0,0,0,-5.4076,-5.3994,-5.4193,-5.4184,-5.4184,-5.4278,-5.428,-5.4281,-5.4238,-5.4235,-5.4231,-5.4228,-5.4312,-5.4318,-5.4324,-5.4432,0,0,-5.4344,-5.4347,0,0,0,0,0,0,0,0,-5.4071,-5.4084,-5.4184,-5.4185,-5.4185,-5.4244,-5.4238,-5.4332,-5.4239,-5.4218,-5.4231,-5.4227,-5.4294,-5.4301,-5.4325,-5.4436,-5.4439,-5.4345,-5.4349,-5.4351,-5.4353,0,0,0,0,0,0,0,-5.4065,-5.408,-5.4227,-5.4186,-5.4186,-5.4174,-5.4183,-5.4256,-5.4273,-5.4219,-5.4216,-5.4227,-5.4293,-5.4319,-5.4326,-5.444,-5.4345,-5.435,-5.4354,-5.4357,-5.4641,-5.4644,0,0,0,0,0,0,-5.406,-5.4075,-5.4224,-5.423,-5.4119,-5.4181,-5.419,-5.4228,-5.4272,-5.4276,-5.423,-5.4225,-5.4309,-5.4319,-5.4329,-5.4455,-5.4351,-5.4357,-5.4361,-5.4637,-5.4641,-5.4645,0,0,0,0,0,0,-5.4056,-5.4074,-5.4221,-5.4152,-5.4169,-5.4188,-5.4231,-5.4232,-5.4257,-5.4281,-5.4283,-5.4253,-5.4307,-5.432,-5.4406,-5.4457,-5.436,-5.4366,-5.4633,-5.4638,-5.4643,-5.4709,0,0,0,0,0,0,-5.405,-5.4073,-5.4114,-5.4153,-5.4173,-5.4298,-5.4234,-5.4236,-5.4269,-5.4263,-5.4303,-5.4306,-5.4305,-5.4397,-5.4413,-5.4464,-5.4371,-5.4628,-5.4635,-5.4642,-5.4702,-5.4716,-5.4727,0,0,0,0,0,-5.4043,-5.4129,-5.4117,-5.4135,-5.4226,-5.4301,-5.4312,-5.431,-5.4273,-5.4314,-5.4329,-5.4305,-5.445,-5.4406,-5.4423,-5.4478,-5.4625,-5.4633,-5.4641,-5.4696,-5.4713,-5.4727,0,0,0,0,0,0,-5.4095,-5.4134,-5.4121,-5.4222,-5.4259,-5.4293,-5.4345,-5.4329,-5.4375,-5.4368,-5.4363,-5.4372,-5.4461,-5.4479,-5.4429,-5.4583,-5.4531,-5.4543,-5.4567,-5.4583,-5.4596,-5.4588,-5.4377,0,0,0,0,0,-5.4119,-5.4177,-5.4208,-5.4294,-5.4314,-5.4327,-5.4359,-5.4355,-5.4391,-5.4406,-5.4427,-5.4463,-5.4516,-5.4552,-5.4602,-5.4706,-5.4712,-5.4752,-5.4765,-5.4775,-5.4784,-5.4837,-5.4854,-5.4672,-5.4672,-5.4672,0,0,-5.4168,-5.4196,-5.4233,-5.4306,-5.4333,-5.4392,-5.434,-5.4405,-5.4447,-5.4416,-5.4497,-5.4515,-5.4554,-5.4648,-5.4691,-5.4666,-5.4836,-5.4785,-5.4793,-5.4797,-5.4847,-5.4864,-5.4879,-5.4678,-5.4677,-5.4676,0,0,-5.4285,-5.4315,-5.4388,-5.4417,-5.446,-5.4468,-5.4486,-5.4524,-5.4534,-5.4616,-5.4593,-5.4644,-5.4737,-5.4765,-5.4791,-5.492,-5.4898,-5.4937,-5.5002,-5.5054,-5.5068,-5.508,-5.5123,-5.5138,-5.4947,-5.4947,-5.4948,0,-5.434,-5.4428,-5.4428,-5.4494,-5.4525,-5.4502,-5.4575,-5.4603,-5.466,-5.4681,-5.4653,-5.4768,-5.4793,-5.4892,-5.4923,-5.4947,-5.4965,-5.493,-5.5066,-5.5079,-5.509,-5.513,-5.5147,-5.4952,-5.4951,-5.4951,-5.495,0,-5.4491,-5.4553,-5.4608,-5.4663,-5.4701,-5.4771,-5.4779,-5.4818,-5.4811,-5.4822,-5.4904,-5.4934,-5.4989,-5.5013,-5.5007,-5.5111,-5.5094,-5.5067,-5.5014,-5.5112,-5.5149,-5.5165,-5.4957,-5.4956,-5.4955,-5.4954,0,0,-5.4642,-5.4697,-5.4716,-5.474,-5.4786,-5.4833,-5.4901,-5.4956,-5.4987,-5.5028,-5.5082,-5.5162,-5.5136,-5.5167,-5.5164,-5.521,-5.5305,-5.5176,-5.5177,-5.5195,-5.5418,-5.5435,-5.5453,-5.5293,-5.5296,-5.5298,-5.5413,0,-5.476,-5.4879,-5.488,-5.4989,-5.5044,-5.5023,-5.5082,-5.5115,-5.5127,-5.5175,-5.5188,-5.5243,-5.5207,-5.5225,-5.527,-5.5284,-5.5349,-5.5277,-5.534,-5.5343,-5.5327,-5.5473,-5.5492,-5.5598,-5.5428,-5.5431,-5.5432,0,-5.4912,-5.4958,-5.5072,-5.5108,-5.5131,-5.5184,-5.5233,-5.528,-5.5317,-5.5323,-5.5357,-5.5347,-5.5414,-5.5363,-5.5454,-5.5404,-5.5431,-5.5442,-5.5447,-5.5449,-5.539,-5.5475,-5.5633,-5.5647,-5.5456,-5.5454,-5.5453,0,-5.5005,-5.5096,-5.5175,-5.5197,-5.5242,-5.5279,-5.5299,-5.5333,-5.5365,-5.5408,-5.5429,-5.5479,-5.5506,-5.5545,-5.5548,-5.5511,-5.5638,-5.5588,-5.5642,-5.5642,-5.5666,-5.5664,-5.5826,-5.5691,-5.5691,-5.569,-5.569,0,-5.5134,-5.5204,-5.5217,-5.5265,-5.5342,-5.5343,-5.5419,-5.5436,-5.5467,-5.5516,-5.5502,-5.5549,-5.5552,-5.56,-5.5604,-5.5676,-5.569,-5.5694,-5.5693,-5.5693,-5.5691,-5.5707,-5.5698,-5.5695,-5.5694,-5.5693,-5.5692,0,-5.5249,-5.5261,-5.5345,-5.5382,-5.5392,-5.5447,-5.5477,-5.5522,-5.5534,-5.5597,-5.5612,-5.5629,-5.5684,-5.5693,-5.5758,-5.576,-5.5846,-5.584,-5.5833,-5.5831,-5.5882,-5.5876,-5.6056,-5.6079,-5.5933,-5.5935,-5.5936,0,-5.5328,-5.5382,-5.5423,-5.5456,-5.5478,-5.5532,-5.5564,-5.5568,-5.5602,-5.5648,-5.5687,-5.5742,-5.5784,-5.5874,-5.5891,-5.5941,-5.5933,-5.5993,-5.594,-5.5937,-5.5928,-5.5924,-5.5927,-5.6001,-5.6003,-5.6004,-5.6005,0,-5.5467,-5.547,-5.5518,-5.5568,-5.5608,-5.5647,-5.5685,-5.5712,-5.572,-5.5759,-5.5816,-5.585,-5.5916,-5.5969,-5.6018,-5.6037,-5.6022,-5.6023,-5.6037,-5.6035,-5.6027,-5.6028,-5.5856,-5.6017,-5.6016,-5.6015,-5.6015,-5.6014,-5.5563,-5.5608,-5.5644,-5.5698,-5.5726,-5.5761,-5.5805,-5.5822,-5.587,-5.5924,-5.5924,-5.5985,-5.6019,-5.6083,-5.6106,-5.6153,-5.6134,-5.6155,-5.616,-5.6164,-5.6167,-5.6024,-5.6163,-5.6163,-5.6162,-5.6162,-5.6162,0,-5.5697,-5.5719,-5.5769,-5.5821,-5.5863,-5.5847,-5.5888,-5.5923,-5.5977,-5.6011,-5.6054,-5.6118,-5.617,-5.6192,-5.6242,-5.6275,-5.6269,-5.6287,-5.6283,-5.6287,-5.6184,-5.6165,-5.6291,-5.6291,-5.6291,-5.6291,-5.6291,-5.6291,-5.5771,-5.5845,-5.5853,-5.5941,-5.5962,-5.6022,-5.6046,-5.6078,-5.6104,-5.6177,-5.6219,-5.6234,-5.6263,-5.6314,-5.636,-5.6365,-5.6382,-5.6403,-5.6405,-5.6308,-5.6294,-5.6282,-5.6263,-5.6408,-5.6408,-5.6503,-5.6504,-5.6504]},{"header":{"parameterUnit":"m.s-1","parameterCategory":1,"la1":30.2991,"la2":30.254,"lo1":-89.0895,"lo2":-89.0444,"dy":0.0017,"dx":0.0017,"nx":28,"ny":28,"refTime":"2024-06-16T21:00:00:Z","depth":0,"parameterNumber":3,"parameterNumberName":"V-component_of_WINDS"},"data":[0,0,0,0,0,0,0,0,0,0,0,0,0,0,0,0,0,0,0,0,0,0,0,0,0,0,0,0,0,0,0,0,0,0,0,0,0,0,0,0,0,0,0,0,0,0,0,0,0,0,0,0,0,0,0,0,0,0,3.7919,3.7919,0,3.7909,3.7909,3.7909,3.7813,3.781,3.7808,3.7805,3.7796,3.7798,3.78,0,0,0,0,0,0,0,0,0,0,0,0,0,3.7855,3.7857,3.7919,3.7919,3.7919,3.7909,3.7909,3.7909,3.7813,3.781,3.7807,3.7804,3.7795,3.7797,3.78,0,0,0,0,0,0,0,0,0,0,0,0,0,3.7868,3.7857,3.7919,3.787,3.7865,3.7909,3.7909,3.7909,3.7814,3.781,3.7806,3.7803,3.7794,3.7797,3.78,3.7891,0,0,3.7809,3.781,0,0,0,0,0,0,0,0,3.7867,3.787,3.7877,3.7873,3.7868,3.7858,3.7883,3.7903,3.7814,3.7833,3.7805,3.7801,3.782,3.782,3.7826,3.789,3.789,3.7809,3.7811,3.7813,3.7813,0,0,0,0,0,0,0,3.7866,3.787,3.7915,3.7877,3.7872,3.7848,3.7846,3.7886,3.7847,3.7831,3.7824,3.7824,3.7816,3.7824,3.7825,3.789,3.7809,3.7812,3.7814,3.7815,3.8026,3.803,0,0,0,0,0,0,3.7872,3.787,3.7915,3.7915,3.7859,3.7852,3.785,3.7865,3.7846,3.784,3.7828,3.782,3.782,3.7822,3.7825,3.7928,3.7813,3.7815,3.7817,3.8023,3.8027,3.8031,0,0,0,0,0,0,3.7871,3.7877,3.7916,3.7891,3.7894,3.7857,3.7875,3.7867,3.7874,3.7843,3.7836,3.7842,3.7818,3.782,3.7875,3.7926,3.7817,3.7819,3.8018,3.8024,3.8029,3.8136,0,0,0,0,0,0,3.787,3.7878,3.7911,3.7892,3.7895,3.7966,3.7878,3.7869,3.7879,3.7869,3.7855,3.7849,3.7815,3.7871,3.7878,3.7928,3.7822,3.8013,3.8021,3.8028,3.8128,3.8145,3.816,0,0,0,0,0,3.7868,3.7942,3.7914,3.792,3.7937,3.7969,3.7971,3.793,3.7884,3.7917,3.7898,3.7849,3.792,3.7877,3.7884,3.7936,3.801,3.8019,3.8027,3.8121,3.8142,3.8159,0,0,0,0,0,0,3.7968,3.7939,3.7907,3.7977,3.7976,3.7953,3.7994,3.7954,3.7966,3.7957,3.7906,3.7903,3.7965,3.7957,3.7909,3.8023,3.7957,3.7967,3.8026,3.8045,3.8061,3.806,3.7824,0,0,0,0,0,3.7999,3.8028,3.8,3.8065,3.8066,3.8031,3.8043,3.8012,3.8009,3.8009,3.7993,3.7992,3.8014,3.803,3.8048,3.8127,3.8122,3.8167,3.8183,3.8196,3.8205,3.8245,3.8264,3.806,3.806,3.806,0,0,3.8062,3.8049,3.807,3.8085,3.808,3.8111,3.8031,3.8067,3.8089,3.8014,3.8063,3.8053,3.8049,3.8116,3.8144,3.811,3.826,3.8207,3.8218,3.8219,3.8256,3.8275,3.8292,3.8066,3.8065,3.8064,0,0,3.8191,3.8185,3.8237,3.8235,3.823,3.8206,3.8219,3.8202,3.8192,3.8241,3.8185,3.8211,3.825,3.8249,3.8254,3.8385,3.834,3.8393,3.8474,3.8514,3.853,3.8544,3.8589,3.8606,3.8402,3.8403,3.8403,0,3.8269,3.8313,3.827,3.8309,3.8317,3.8251,3.8303,3.8303,3.8305,3.8312,3.8274,3.8322,3.8315,3.838,3.8411,3.8418,3.8431,3.8393,3.8531,3.8545,3.8557,3.86,3.8617,3.8409,3.8408,3.8407,3.8407,0,3.8409,3.8441,3.8484,3.8486,3.8499,3.8545,3.8508,3.8527,3.8495,3.8475,3.8526,3.8516,3.8531,3.8545,3.8514,3.8606,3.8584,3.854,3.8472,3.8584,3.8622,3.8638,3.8418,3.8415,3.8414,3.8412,0,0,3.8599,3.8578,3.8594,3.8594,3.8585,3.8608,3.8652,3.8666,3.8682,3.8686,3.872,3.8756,3.8714,3.872,3.8689,3.8725,3.8827,3.8676,3.8675,3.8702,3.8925,3.8957,3.8977,3.8799,3.8802,3.8804,3.8925,0,3.8722,3.8794,3.8756,3.8833,3.8861,3.88,3.8837,3.8835,3.8819,3.884,3.8822,3.8846,3.8791,3.8794,3.8827,3.8808,3.8871,3.8799,3.8829,3.8831,3.8829,3.8997,3.9031,3.9145,3.894,3.8943,3.8945,0,3.8875,3.8885,3.8964,3.8949,3.8959,3.8993,3.9003,3.9025,3.9022,3.9007,3.9014,3.8975,3.9016,3.8951,3.9007,3.8959,3.897,3.8963,3.8966,3.8965,3.8892,3.8999,3.9181,3.9197,3.8968,3.8966,3.8965,0,3.9003,3.9037,3.9088,3.909,3.9074,3.91,3.9094,3.9088,3.9099,3.9108,3.9114,3.9129,3.9137,3.9149,3.9115,3.9071,3.9175,3.9107,3.9163,3.9164,3.9185,3.9184,3.937,3.9197,3.9196,3.9196,3.9196,0,3.9143,3.9193,3.9145,3.9177,3.9231,3.9188,3.9244,3.9232,3.9227,3.9255,3.9204,3.9231,3.9186,3.9209,3.9183,3.9232,3.9237,3.9226,3.9217,3.9229,3.923,3.9233,3.9223,3.9201,3.92,3.9199,3.9198,0,3.9294,3.9264,3.9316,3.9297,3.9293,3.9334,3.9318,3.9346,3.9326,3.9362,3.9368,3.9338,3.9362,3.933,3.9352,3.9334,3.9401,3.9382,3.9402,3.9396,3.9452,3.9447,3.9644,3.9667,3.9482,3.9484,3.9485,0,3.9384,3.9421,3.9406,3.9421,3.9419,3.9444,3.9454,3.9414,3.9428,3.9428,3.9456,3.9476,3.949,3.9532,3.9511,3.9528,3.9508,3.9576,3.951,3.9519,3.9506,3.9503,3.9506,3.9589,3.9591,3.9593,3.9594,0,3.9546,3.953,3.9547,3.956,3.9575,3.9583,3.9587,3.9603,3.9561,3.9579,3.9603,3.9614,3.9636,3.9656,3.9667,3.9661,3.9621,3.9616,3.9629,3.964,3.9648,3.9642,3.9436,3.9611,3.9609,3.9608,3.9607,3.9606,3.9668,3.9698,3.9692,3.9713,3.9712,3.9718,3.9743,3.9727,3.9746,3.976,3.9736,3.9767,3.9763,3.9773,3.9772,3.9796,3.9766,3.9786,3.979,3.9795,3.9803,3.9647,3.9798,3.9797,3.9797,3.9796,3.9796,0,3.9826,3.9819,3.9839,3.9847,3.9864,3.9825,3.9828,3.9845,3.9872,3.9872,3.9886,3.9914,3.9934,3.9916,3.9932,3.9954,3.9936,3.996,3.9956,3.9955,3.983,3.9815,3.9974,3.9974,3.9974,3.9974,3.9974,3.9974,3.991,3.9958,3.9941,3.9988,3.9981,4.001,4.0015,4.002,4.0019,4.0052,4.0068,4.0056,4.0049,4.0064,4.0081,4.0075,4.0082,4.0112,4.01,3.9982,3.9964,3.9948,3.9934,4.0115,4.0115,4.0223,4.0224,4.0225]}]]